#timestamp,LO_Frequency,Hit 
1505584815.9,286046997.2,N
1505584835.7,286046995.4,N
1505584855.6,286046994.2,N
1505584875.4,286046996.0,N
1505584895.2,286046997.7,N
1505584915.0,286046995.0,N
1505584915.9,286046995.0,N
1505584935.8,286046999.2,N
1505584955.6,286046997.0,N
1505584975.4,286046997.9,N
1505584995.3,286046995.3,N
1505585015.1,286046996.3,N
1505585035.8,286046995.2,N
1505585055.7,286046995.1,N
1505585075.5,286046998.5,N
1505585095.3,286046998.4,N
1505585115.2,286047001.6,N
1505585135.9,286047000.9,N
1505585155.7,286047000.2,N
1505585175.5,286047004.0,N
1505585195.4,286047000.2,N
1505585215.2,286046998.8,N
1505585235.0,286047004.0,N
1505585235.9,286047004.0,N
1505585255.8,286047007.1,N
1505585275.6,286047004.2,N
1505585295.4,286047003.8,N
1505585315.3,286047004.0,N
1505585335.1,286047000.3,N
1505585336.0,286047000.3,N
1505585355.8,286047001.2,N
1505585375.7,286047004.3,N
1505585395.5,286047005.4,N
1505585415.3,286047006.0,N
1505585435.2,286047004.8,N
1505585455.9,286047002.6,N
1505585475.7,286047000.7,N
1505585495.6,286047001.0,N
1505585515.4,286047001.2,N
1505585535.2,286046998.6,N
1505585555.0,286047000.8,N
1505585555.9,286047000.8,N
1505585575.8,286046998.8,N
1505585595.6,286047004.4,N
1505585615.4,286047000.5,N
1505585635.3,286046997.6,N
1505585655.1,286046991.7,P
1505585675.8,286046989.0,N
1505585695.7,286046987.1,N
1505585715.5,286046992.3,N
1505585735.3,286046995.7,N
1505585755.2,286046996.3,N
1505585775.9,286046991.9,N
1505585795.7,286046995.0,N
1505585815.6,286046996.1,N
1505585835.4,286046996.6,N
1505585855.2,286046995.5,N
1505585875.1,286046994.1,N
1505585876.0,286046994.1,N
1505585895.8,286046995.7,N
1505585915.6,286046998.0,N
1505585935.4,286046995.1,N
1505585955.3,286046995.8,N
1505585975.1,286046994.4,N
1505585995.8,286046997.7,N
1505586015.7,286046998.8,N
1505586035.5,286046995.0,N
1505586055.3,286046995.0,N
1505586075.2,286046997.9,N
1505586095.9,286046997.1,N
1505586115.7,286046997.3,N
1505586135.6,286046997.8,N
1505586155.4,286046995.9,N
1505586175.2,286046997.5,N
1505586195.0,286046997.9,N
1505586196.0,286046997.9,N
1505586215.8,286046998.7,N
1505586235.6,286046998.3,N
1505586255.4,286047000.6,N
1505586275.3,286046998.5,N
1505586295.1,286047001.2,N
1505586315.8,286047004.6,N
1505586335.7,286047004.9,N
1505586355.5,286047004.0,N
1505586375.3,286047003.9,N
1505586395.2,286047002.9,N
1505586415.9,286047003.7,N
1505586435.7,286047002.6,N
1505586455.6,286047001.2,N
1505586475.4,286046996.8,N
1505586495.2,286046997.6,N
1505586515.1,286046999.9,N
1505586516.0,286046999.9,N
1505586535.8,286047000.0,N
1505586555.6,286047003.1,N
1505586575.5,286047003.0,N
1505586595.3,286047002.8,N
1505586615.1,286046997.7,N
1505586635.8,286046998.3,N
1505586655.7,286046998.2,N
1505586675.5,286046997.3,N
1505586695.3,286047000.5,N
1505586715.2,286047000.4,N
1505586735.9,286046999.6,N
1505586755.7,286047001.2,N
1505586775.6,286046998.4,N
1505586795.4,286046996.9,N
1505586815.2,286046996.6,N
1505586835.1,286046998.4,N
1505586836.0,286046998.4,N
1505586855.8,286046998.6,N
1505586875.6,286046995.9,N
1505586895.5,286046995.3,N
1505586915.3,286046991.8,P
1505586935.1,286046994.1,N
1505586955.9,286046998.0,N
1505586975.7,286046997.1,N
1505586995.5,286046996.2,N
1505587015.3,286046996.3,N
1505587035.2,286046993.3,N
1505587055.0,286046999.3,N
1505587055.9,286046999.3,N
1505587075.7,286047000.7,N
1505587095.6,286047001.7,N
1505587115.4,286047002.0,N
1505587135.2,286047000.7,N
1505587155.1,286047002.6,N
1505587156.0,286047002.6,N
1505587175.8,286046998.6,N
1505587195.6,286047002.8,N
1505587215.5,286047002.3,N
1505587235.3,286047002.3,N
1505587255.1,286047002.7,N
1505587275.9,286047004.8,N
1505587295.7,286047002.5,N
1505587315.5,286047002.1,N
1505587335.3,286047002.6,N
1505587355.2,286047002.4,N
1505587375.0,286047003.4,N
1505587375.9,286047003.4,N
1505587395.7,286047001.7,N
1505587415.6,286047000.2,N
1505587435.4,286047002.2,N
1505587455.2,286047001.4,N
1505587475.1,286047006.1,N
1505587476.0,286047006.1,N
1505587495.8,286047007.4,N
1505587515.6,286047004.0,N
1505587535.5,286047005.1,N
1505587555.3,286047004.5,N
1505587575.1,286047009.1,P
1505587595.9,286047006.4,N
1505587615.7,286047002.9,N
1505587635.5,286047001.0,N
1505587655.4,286047000.0,N
1505587675.2,286046998.5,N
1505587695.0,286046997.2,N
1505587695.9,286046997.2,N
1505587715.8,286047010.9,N
1505587735.6,286047009.7,N
1505587755.4,286047012.6,N
1505587775.3,286047008.8,N
1505587795.1,286047005.8,N
1505587796.0,286047005.8,N
1505587815.8,286047003.9,N
1505587835.6,286047000.1,N
1505587855.5,286046997.3,N
1505587875.3,286046993.5,N
1505587895.1,286046993.3,N
1505587915.9,286046997.6,N
1505587935.7,286046996.6,N
1505587955.5,286046999.0,N
1505587975.4,286046998.8,N
1505587995.2,286046999.6,N
1505588015.0,286046998.8,N
1505588015.9,286046998.8,N
1505588035.8,286046999.5,N
1505588055.6,286046998.3,N
1505588075.4,286047000.0,N
1505588095.3,286047000.5,N
1505588115.1,286046999.9,N
1505588116.0,286046999.9,N
1505588135.8,286047001.1,N
1505588155.6,286046996.9,N
1505588175.5,286046999.0,N
1505588195.3,286046999.1,N
1505588215.1,286046998.9,N
1505588235.9,286047000.5,N
1505588255.7,286047001.7,N
1505588275.5,286046999.9,N
1505588295.4,286047000.2,N
1505588315.2,286047000.7,N
1505588335.0,286046996.9,N
1505588335.9,286046996.9,N
1505588355.8,286046997.1,N
1505588375.6,286046998.5,N
1505588395.4,286046998.2,N
